CW2796 Weather Reports


Display with metric or nautical units.
time (UTC)temp
F
wind
direction
speed
MPH
gust
MPH
rain 1hr
in
rain 24hr
in
rain mn
in
humidity
%
barometer
mb
20190422080220 73 311 0.0 0.0 0.00 0.00 0.00 22 1005.6
20190422074630 73 304 3.0 0.0 0.00 0.00 0.00 21 1005.6
20190422073145 74 239 1.0 0.0 0.00 0.00 0.00 21 1005.4
20190422071610 74 196 2.0 0.0 0.00 0.00 0.00 20 1005.3
20190422070137 74 196 0.0 0.0 0.00 0.00 0.00 20 1005.2
20190422064615 74 196 1.0 0.0 0.00 0.00 0.00 19 1005.1
20190422063134 75 198 4.0 0.0 0.00 0.00 0.00 19 1005.1
20190422061526 75 203 3.0 0.0 0.00 0.00 0.00 19 1005.1
20190422060029 75 0.0 0.0 0.00 0.00 0.00 19 1005.2
20190422054530 75 208 2.0 0.0 0.00 0.00 0.00 19 1005.2
20190422053052 75 208 1.0 0.0 0.00 0.00 0.00 19 1005.4
20190422051525 75 208 2.0 0.0 0.00 0.00 0.00 19 1005.3
20190422050034 75 208 0.0 0.0 0.00 0.00 0.00 18 1005.3
20190422044520 76 208 0.0 0.0 0.00 0.00 0.00 18 1005.2
20190422043027 76 208 0.0 0.0 0.00 0.00 0.00 18 1005.1
20190422041547 76 208 0.0 0.0 0.00 0.00 0.00 18 1005.0
20190422040046 77 208 0.0 0.0 0.00 0.00 0.00 17 1005.0
20190422034524 77 208 0.0 0.0 0.00 0.00 0.00 17 1004.7
20190422033024 78 208 0.0 0.0 0.00 0.00 0.00 17 1004.6
20190422031544 78 208 0.0 0.0 0.00 0.00 0.00 16 1004.5
20190422030019 79 208 0.0 0.0 0.00 0.00 0.00 16 1004.4
20190422024533 79 206 2.0 0.0 0.00 0.00 0.00 16 1004.2
20190422023015 80 209 2.0 0.0 0.00 0.00 0.00 15 1004.2
20190422021530 80 213 2.0 0.0 0.00 0.00 0.00 15 1004.0
20190422020020 81 239 2.0 0.0 0.00 0.00 0.00 14 1004.2
20190422014538 82 233 1.0 0.0 0.00 0.00 0.00 13 1004.2
20190422013038 83 237 1.0 0.0 0.00 0.00 0.00 13 1003.9
20190422011513 83 240 2.0 0.0 0.00 0.00 0.00 12 1004.0
20190422010036 84 274 3.0 0.0 0.00 0.00 0.00 13 1004.2
20190422004538 84 216 2.0 0.0 0.00 0.00 0.00 12 1004.2
20190422003036 84 236 2.0 0.0 0.00 0.00 0.00 12 1004.2
20190422001539 84 206 2.0 0.0 0.00 0.00 0.00 12 1004.2
20190422000025 84 247 11.0 0.0 0.00 0.00 0.00 12 1004.2
20190421234535 84 222 2.0 0.0 0.00 0.00 0.00 11 1004.2
20190421233014 84 251 2.0 0.0 0.00 0.00 0.00 11 1004.2
20190421231519 84 189 2.0 0.0 0.00 0.00 0.00 12 1004.2
20190421230015 84 143 4.0 0.0 0.00 0.00 0.00 12 1004.3
20190421224509 84 195 2.0 0.0 0.00 0.00 0.00 11 1004.5
20190421223008 83 198 3.0 0.0 0.00 0.00 0.00 12 1004.7
20190421221533 83 230 4.0 0.0 0.00 0.00 0.00 12 1004.8
20190421220006 83 212 3.0 0.0 0.00 0.00 0.00 13 1004.9
20190421214506 83 239 4.0 0.0 0.00 0.00 0.00 13 1005.0
20190421213003 84 196 3.0 0.0 0.00 0.00 0.00 14 1005.1
20190421211514 83 210 3.0 0.0 0.00 0.00 0.00 15 1005.4
20190421210002 83 130 3.0 0.0 0.00 0.00 0.00 15 1005.6
20190421204504 82 191 2.0 0.0 0.00 0.00 0.00 15 1005.8
20190421203150 82 140 3.0 0.0 0.00 0.00 0.00 16 1005.9
20190421201646 82 253 3.0 0.0 0.00 0.00 0.00 17 1006.0
20190421200157 82 261 2.0 0.0 0.00 0.00 0.00 17 1006.1
20190421194652 81 284 1.0 0.0 0.00 0.00 0.00 18 1006.2
20190421193221 80 319 3.0 0.0 0.00 0.00 0.00 18 1006.3
20190421191659 80 244 2.0 0.0 0.00 0.00 0.00 18 1006.3
20190421190137 79 244 3.0 0.0 0.00 0.00 0.00 19 1006.4
20190421184618 80 192 2.0 0.0 0.00 0.00 0.00 19 1006.5
20190421183208 79 165 4.0 0.0 0.00 0.00 0.00 20 1006.7
20190421181709 79 202 2.0 0.0 0.00 0.00 0.00 21 1006.6
20190421180128 78 220 2.0 0.0 0.00 0.00 0.00 21 1006.7
20190421174603 77 188 3.0 0.0 0.00 0.00 0.00 21 1006.6
20190421173137 76 209 3.0 0.0 0.00 0.00 0.00 21 1006.8
20190421171642 76 168 2.0 0.0 0.00 0.00 0.00 22 1006.8
20190421170209 76 181 2.0 0.0 0.00 0.00 0.00 22 1006.7
20190421164611 75 196 4.0 0.0 0.00 0.00 0.00 23 1006.7
20190421163131 74 253 2.0 0.0 0.00 0.00 0.00 24 1006.6
20190421161607 74 241 3.0 0.0 0.00 0.00 0.00 24 1006.8
20190421160125 74 162 2.0 0.0 0.00 0.00 0.00 24 1006.6
20190421154619 73 195 3.0 0.0 0.00 0.00 0.00 25 1006.5
20190421153102 72 178 2.0 0.0 0.00 0.00 0.00 26 1006.4
20190421151555 72 178 3.0 0.0 0.00 0.00 0.00 27 1006.2
20190421150052 70 178 2.0 0.0 0.00 0.00 0.00 27 1006.2
20190421144620 69 178 3.0 0.0 0.00 0.00 0.00 28 1006.2
20190421143149 69 178 2.0 0.0 0.00 0.00 0.00 30 1006.0
20190421141654 68 178 0.0 0.0 0.00 0.00 0.00 31 1005.9
20190421140057 66 178 0.0 0.0 0.00 0.00 0.00 32 1005.7
20190421134535 65 178 2.0 0.0 0.00 0.00 0.00 33 1005.5
20190421133040 64 178 1.0 0.0 0.00 0.00 0.00 32 1005.5
20190421131600 64 178 1.0 0.0 0.00 0.00 0.00 32 1005.2
20190421130138 65 184 3.0 0.0 0.00 0.00 0.00 32 1005.0
20190421124551 66 193 1.0 0.0 0.00 0.00 0.00 29 1004.6
20190421123101 66 193 1.0 0.0 0.00 0.00 0.00 29 1004.7
20190421121532 66 193 2.0 0.0 0.00 0.00 0.00 28 1004.7
20190421120113 66 193 1.0 0.0 0.00 0.00 0.00 30 1004.6
20190421114548 66 193 1.0 0.0 0.00 0.00 0.00 31 1004.5
20190421113052 66 193 0.0 0.0 0.00 0.00 0.00 28 1004.2
20190421111538 67 193 0.0 0.0 0.00 0.00 0.00 29 1004.2
20190421110027 68 193 0.0 0.0 0.00 0.00 0.00 27 1004.1
20190421104605 69 193 1.0 0.0 0.00 0.00 0.00 25 1003.8
20190421103029 70 131 1.0 0.0 0.00 0.00 0.00 24 1003.7
20190421101515 70 131 1.0 0.0 0.00 0.00 0.00 23 1003.8
20190421100030 70 131 0.0 0.0 0.00 0.00 0.00 23 1003.7
20190421094540 71 131 1.0 0.0 0.00 0.00 0.00 22 1003.6
20190421093036 71 131 0.0 0.0 0.00 0.00 0.00 22 1003.3
20190421091538 71 131 0.0 0.0 0.00 0.00 0.00 21 1003.2
20190421090009 72 131 2.0 0.0 0.00 0.00 0.00 20 1003.2
20190421084523 72 131 1.0 0.0 0.00 0.00 0.00 19 1003.2
20190421083005 72 131 0.0 0.0 0.00 0.00 0.00 19 1003.2
20190421081504 72 131 0.0 0.0 0.00 0.00 0.00 20 1003.3